EN

Hourly Weather Dabie

Today, 4 August, Wednesday

Time Temperature Precipitation Wind Pressure Humidity
00:00 +16°C° 0.3 mm 1 mps 753 mmHg 89%
01:00 +16°C° 0 mm 1 mps 753 mmHg 91%
02:00 +15°C° 0.5 mm 1 mps 752 mmHg 92%
03:00 +15°C° 0.5 mm 1 mps 752 mmHg 93%
04:00 +15°C° 0.5 mm 1 mps 752 mmHg 94%
05:00 +15°C° 0.3 mm 1 mps 752 mmHg 91%
06:00 +16°C° 0.3 mm 1 mps 753 mmHg 88%
07:00 +18°C° 0 mm 1 mps 753 mmHg 83%
08:00 +19°C° 0.3 mm 1 mps 753 mmHg 76%
09:00 +21°C° 0.3 mm 1 mps 753 mmHg 69%
10:00 +22°C° 0.3 mm 1 mps 753 mmHg 61%
11:00 +23°C° 0.8 mm 1 mps 753 mmHg 61%
12:00 +23°C° 0.8 mm 1 mps 752 mmHg 60%
13:00 +23°C° 0.8 mm 1 mps 752 mmHg 59%
14:00 +23°C° 0.7 mm 1 mps 752 mmHg 60%
15:00 +23°C° 0.7 mm 1 mps 752 mmHg 60%
16:00 +23°C° 0.7 mm 1 mps 752 mmHg 61%
17:00 +22°C° 0.5 mm 1 mps 752 mmHg 67%
18:00 +21°C° 0.5 mm 1 mps 752 mmHg 73%
19:00 +20°C° 0.5 mm 1 mps 752 mmHg 79%
20:00 +19°C° 0.1 mm 1 mps 752 mmHg 82%
21:00 +19°C° 0.1 mm 1 mps 752 mmHg 85%
22:00 +17°C° 0.1 mm 2 mps 752 mmHg 88%
23:00 +16°C° 0 mm 2 mps 752 mmHg 89%

Tomorrow, 5 August, Thursday

Time Temperature Precipitation Wind Pressure Humidity
00:00 +16°C° 0 mm 2 mps 752 mmHg 91%
01:00 +16°C° 0 mm 2 mps 752 mmHg 92%
02:00 +15°C° 0 mm 2 mps 752 mmHg 92%
03:00 +15°C° 0 mm 2 mps 751 mmHg 93%
04:00 +15°C° 0 mm 2 mps 751 mmHg 94%
05:00 +15°C° 0 mm 2 mps 751 mmHg 91%
06:00 +16°C° 0 mm 2 mps 751 mmHg 88%
07:00 +17°C° 0 mm 3 mps 751 mmHg 85%
08:00 +19°C° 0.1 mm 3 mps 751 mmHg 77%
09:00 +20°C° 0.1 mm 3 mps 751 mmHg 70%
10:00 +22°C° 0.1 mm 3 mps 751 mmHg 62%
11:00 +24°C° 0.4 mm 3 mps 750 mmHg 58%
12:00 +25°C° 0.4 mm 3 mps 750 mmHg 54%
13:00 +25°C° 0.4 mm 3 mps 749 mmHg 50%
14:00 +24°C° 0.3 mm 3 mps 749 mmHg 56%
15:00 +22°C° 0.3 mm 3 mps 749 mmHg 61%
16:00 +21°C° 0.3 mm 3 mps 749 mmHg 67%
17:00 +20°C° 0.2 mm 3 mps 749 mmHg 71%
18:00 +20°C° 0.2 mm 2 mps 749 mmHg 75%
19:00 +19°C° 0.2 mm 2 mps 749 mmHg 78%
20:00 +18°C° 0 mm 2 mps 749 mmHg 80%
21:00 +19°C° 0 mm 1 mps 749 mmHg 81%
22:00 +18°C° 0 mm 1 mps 749 mmHg 83%
23:00 +18°C° 0 mm 1 mps 749 mmHg 84%

Day after tomorrow, 6 August, Friday

Time Temperature Precipitation Wind Pressure Humidity
00:00 +18°C° 0 mm 1 mps 749 mmHg 85%
01:00 +16°C° 0 mm 1 mps 749 mmHg 86%
02:00 +16°C° 0 mm 1 mps 749 mmHg 86%
03:00 +16°C° 0 mm 1 mps 748 mmHg 87%
04:00 +16°C° 0 mm 1 mps 748 mmHg 88%
05:00 +18°C° 0 mm 1 mps 748 mmHg 84%
06:00 +19°C° 0 mm 1 mps 748 mmHg 79%
07:00 +19°C° 0 mm 1 mps 748 mmHg 75%
08:00 +21°C° 0 mm 1 mps 748 mmHg 68%
09:00 +23°C° 0 mm 1 mps 748 mmHg 60%
10:00 +24°C° 0 mm 1 mps 749 mmHg 52%
11:00 +25°C° 0.1 mm 1 mps 748 mmHg 49%
12:00 +26°C° 0.1 mm 1 mps 748 mmHg 46%
13:00 +27°C° 0.1 mm 1 mps 748 mmHg 43%
14:00 +26°C° 0.1 mm 1 mps 748 mmHg 48%
15:00 +25°C° 0.1 mm 1 mps 748 mmHg 54%
16:00 +24°C° 0.1 mm 1 mps 748 mmHg 59%
17:00 +23°C° 0.2 mm 1 mps 748 mmHg 63%
18:00 +22°C° 0.2 mm 1 mps 748 mmHg 66%
19:00 +22°C° 0.2 mm 1 mps 748 mmHg 70%
20:00 +21°C° 0.1 mm 1 mps 748 mmHg 75%
21:00 +19°C° 0.1 mm 2 mps 749 mmHg 80%
22:00 +18°C° 0.1 mm 2 mps 749 mmHg 84%
23:00 +17°C° 0 mm 2 mps 749 mmHg 87%

7 August, Saturday

Time Temperature Precipitation Wind Pressure Humidity
00:00 +17°C° 0 mm 2 mps 749 mmHg 89%
01:00 +17°C° 0 mm 2 mps 749 mmHg 91%
02:00 +16°C° 0 mm 2 mps 749 mmHg 92%
03:00 +16°C° 0 mm 2 mps 749 mmHg 93%
04:00 +16°C° 0 mm 2 mps 749 mmHg 95%
05:00 +16°C° 0 mm 2 mps 749 mmHg 90%
06:00 +17°C° 0 mm 2 mps 750 mmHg 86%
07:00 +18°C° 0 mm 3 mps 750 mmHg 81%
08:00 +20°C° 0 mm 3 mps 750 mmHg 74%
09:00 +22°C° 0 mm 3 mps 750 mmHg 66%
10:00 +24°C° 0 mm 3 mps 750 mmHg 59%
11:00 +25°C° 0 mm 3 mps 750 mmHg 54%
12:00 +26°C° 0 mm 3 mps 749 mmHg 49%
13:00 +27°C° 0 mm 2 mps 749 mmHg 44%
14:00 +28°C° 0 mm 2 mps 749 mmHg 42%
15:00 +28°C° 0 mm 2 mps 748 mmHg 41%
16:00 +28°C° 0 mm 2 mps 748 mmHg 39%
17:00 +27°C° 0 mm 2 mps 748 mmHg 45%
18:00 +26°C° 0 mm 1 mps 748 mmHg 52%
19:00 +24°C° 0 mm 1 mps 748 mmHg 58%
20:00 +24°C° 0 mm 1 mps 748 mmHg 59%
21:00 +23°C° 0 mm 2 mps 748 mmHg 59%
22:00 +21°C° 0 mm 2 mps 748 mmHg 60%
23:00 +21°C° 0 mm 2 mps 748 mmHg 61%

8 August, Sunday

Time Temperature Precipitation Wind Pressure Humidity
00:00 +21°C° 0 mm 2 mps 748 mmHg 63%
01:00 +20°C° 0 mm 2 mps 748 mmHg 64%
02:00 +20°C° 0.1 mm 3 mps 748 mmHg 71%
03:00 +19°C° 0.1 mm 3 mps 748 mmHg 78%
04:00 +18°C° 0.1 mm 4 mps 748 mmHg 84%
05:00 +18°C° 0.4 mm 4 mps 749 mmHg 87%
06:00 +18°C° 0.4 mm 4 mps 749 mmHg 90%
07:00 +17°C° 0.4 mm 4 mps 750 mmHg 92%
08:00 +19°C° 0.1 mm 4 mps 750 mmHg 85%
09:00 +20°C° 0.1 mm 4 mps 751 mmHg 77%
10:00 +21°C° 0.1 mm 5 mps 751 mmHg 70%
11:00 +22°C° 0 mm 5 mps 751 mmHg 63%
12:00 +23°C° 0 mm 5 mps 752 mmHg 56%
13:00 +26°C° 0 mm 5 mps 752 mmHg 49%
14:00 +25°C° 0 mm 4 mps 752 mmHg 53%
15:00 +23°C° 0 mm 4 mps 753 mmHg 56%
16:00 +22°C° 0 mm 3 mps 753 mmHg 60%
17:00 +21°C° 0.2 mm 3 mps 753 mmHg 63%
18:00 +20°C° 0.2 mm 3 mps 753 mmHg 67%
19:00 +20°C° 0.2 mm 3 mps 754 mmHg 71%
20:00 +19°C° 0.2 mm 3 mps 754 mmHg 74%
21:00 +18°C° 0.2 mm 3 mps 755 mmHg 77%
22:00 +17°C° 0.2 mm 3 mps 755 mmHg 80%
23:00 +17°C° 0 mm 3 mps 756 mmHg 82%

9 August, Monday

Time Temperature Precipitation Wind Pressure Humidity
00:00 +16°C° 0 mm 3 mps 756 mmHg 85%
01:00 +14°C° 0 mm 3 mps 756 mmHg 88%
02:00 +15°C° 0 mm 2 mps 756 mmHg 89%
03:00 +14°C° 0 mm 2 mps 756 mmHg 91%
04:00 +14°C° 0 mm 2 mps 757 mmHg 93%
05:00 +15°C° 0 mm 2 mps 757 mmHg 88%
06:00 +16°C° 0 mm 2 mps 757 mmHg 83%
07:00 +17°C° 0 mm 2 mps 757 mmHg 78%
08:00 +19°C° 0 mm 2 mps 757 mmHg 70%
09:00 +20°C° 0 mm 3 mps 757 mmHg 62%
10:00 +22°C° 0 mm 3 mps 758 mmHg 54%
11:00 +24°C° 0 mm 3 mps 757 mmHg 50%
12:00 +24°C° 0 mm 3 mps 757 mmHg 46%
13:00 +25°C° 0 mm 4 mps 757 mmHg 42%
14:00 +25°C° 0 mm 3 mps 757 mmHg 42%
15:00 +25°C° 0 mm 3 mps 757 mmHg 42%
16:00 +25°C° 0 mm 3 mps 757 mmHg 42%
17:00 +22°C° 0.1 mm 3 mps 757 mmHg 52%
18:00 +20°C° 0.1 mm 2 mps 757 mmHg 63%
19:00 +18°C° 0.1 mm 2 mps 757 mmHg 73%
20:00 +19°C° 0 mm 1 mps 757 mmHg 73%
21:00 +19°C° 0 mm 1 mps 758 mmHg 73%
22:00 +19°C° 0 mm 1 mps 758 mmHg 73%
23:00 +18°C° 0 mm 1 mps 758 mmHg 76%
Show more

We Need Your Consent

Meteoprog and our Service Providers may store and access personal data such as cookies, device identifiers or other similar technologies on your device and process such data to personalise content and ads, as well as provide social media features and to analyse the traffic.

  • Store and/or access information on your device

    Cookies, device identifiers or other information can be stored or accessed on your device for the purposes indicated above.

  • Personalised ads and content, ad and content measurement, audience insights, and products development

    Ads and content can be personalised based on a profile. More data can be added to better personalise ads and content. Ad and content performance can be measured. Insights about the audience who saw the ads and content can be derived. Such data can be used to develop or improve user’s experience, systems and software.

By clicking ‘I Agree’ you will allow the use of indicated cookies, device identifiers, web beacons or other similar technologies. Your settings can be changed in the browser on your device.

For certain purposes, legitimate interests may be relied on, rather than consent. You can read more about this in our Privacy and Cookie Policy.